QPF
0.08 0.05 0.02 0.02 0.01 0.01 0.01 0.02 0.06 0.12 0.14 0.19 0.18 0.14 0.15 0.16 0.12 0.07 0.05 0.04 0.03 0.03 0.02 0.02 0.02 0.02 0.02 0.03 0.03 0.02 0.01 0.01 0.01 0.01 0.01 0.01 0.01 0.02 0.01 0.01 0.01 0.01 0.01 0.01
0.07 0.05 0.04 0.03 0.01 0.01 0.02 0.02 0.05 0.10 0.14 0.15 0.14 0.11 0.10 0.13 0.14 0.14 0.12 0.10 0.08 0.07 0.06 0.04 0.02 0.02 0.02 0.02 0.02 0.02 0.01 0.01 0.01 0.02 0.02 0.01 0.01 0.01 0.01 0.01 0.01 0.01 0.01 0.01
0.05 0.03 0.05 0.07 0.03 0.01 0.02 0.03 0.05 0.10 0.11 0.12 0.07 0.07 0.08 0.07 0.09 0.14 0.18 0.20 0.18 0.14 0.11 0.07 0.05 0.03 0.02 0.02 0.02 0.02 0.02 0.01 0.01 0.01 0.01 0.01 0.01 0.01 0.01 0.02 0.02 0.02 0.02 0.02
0.03 0.03 0.07 0.07 0.01 0.01 0.04 0.04 0.04 0.06 0.05 0.06 0.05 0.06 0.08 0.08 0.09 0.14 0.17 0.19 0.19 0.16 0.13 0.09 0.06 0.05 0.03 0.02 0.02 0.02 0.02 0.02 0.02 0.01 0.01 0.01 0.01 0.02 0.02 0.02 0.02 0.02 0.02 0.02
0.04 0.06 0.07 0.05 0.01 0.01 0.05 0.08 0.08 0.09 0.06 0.04 0.03 0.03 0.05 0.07 0.09 0.13 0.15 0.16 0.18 0.15 0.12 0.08 0.05 0.04 0.03 0.03 0.02 0.02 0.03 0.03 0.03 0.03 0.03 0.03 0.03 0.03 0.03 0.03 0.02 0.02 0.01 0.02
0.04 0.05 0.07 0.05 0.02 0.01 0.05 0.11 0.09 0.12 0.10 0.08 0.07 0.06 0.06 0.07 0.07 0.09 0.12 0.15 0.15 0.14 0.12 0.09 0.07 0.05 0.04 0.05 0.05 0.04 0.03 0.03 0.03 0.03 0.03 0.03 0.03 0.03 0.02 0.02 0.02 0.01 0.01 0.02
0.03 0.04 0.04 0.01 0.01 0.03 0.08 0.09 0.07 0.09 0.12 0.11 0.09 0.08 0.06 0.07 0.08 0.09 0.10 0.11 0.11 0.10 0.10 0.09 0.08 0.07 0.07 0.06 0.05 0.04 0.03 0.03 0.03 0.02 0.02 0.02 0.03 0.02 0.03 0.03 0.02 0.02 0.01 0.02
0.02 0.03 0.03 0.01 0.01 0.02 0.04 0.04 0.03 0.06 0.07 0.06 0.04 0.06 0.07 0.08 0.08 0.09 0.10 0.10 0.10 0.10 0.09 0.09 0.09 0.09 0.10 0.08 0.05 0.03 0.02 0.02 0.02 0.02 0.01 0.01 0.03 0.02 0.03 0.03 0.03 0.02 0.02 0.02
0.01 0.02 0.01 0.00 0.01 0.02 0.02 0.03 0.02 0.04 0.05 0.03 0.02 0.03 0.06 0.08 0.09 0.09 0.10 0.11 0.11 0.09 0.09 0.08 0.07 0.07 0.07 0.05 0.03 0.02 0.02 0.02 0.02 0.02 0.01 0.01 0.02 0.02 0.02 0.02 0.01 0.01 0.02 0.03
0.01 0.01 0.01 0.01 0.01 0.02 0.02 0.01 0.01 0.03 0.03 0.03 0.03 0.02 0.04 0.06 0.07 0.08 0.08 0.08 0.08 0.07 0.06 0.05 0.03 0.03 0.03 0.02 0.01 0.02 0.02 0.02 0.03 0.03 0.03 0.01 0.01 0.01 0.01 0.01 0.01 0.01 0.02 0.03
0.02 0.02 0.01 0.01 0.01 0.01 0.01 0.00 0.01 0.02 0.03 0.03 0.03 0.03 0.03 0.04 0.05 0.05 0.05 0.05 0.04 0.04 0.03 0.02 0.01 0.01 0.01 0.01 0.01 0.02 0.03 0.02 0.02 0.03 0.02 0.02 0.02 0.01 0.00 0.00 0.00 0.00 0.01 0.01
0.02 0.01 0.01 0.01 0.01 0.00 0.00 0.00 0.01 0.01 0.01 0.01 0.02 0.03 0.04 0.04 0.05 0.04 0.03 0.03 0.02 0.02 0.02 0.01 0.01 0.00 0.00 0.00 0.01 0.03 0.03 0.02 0.01 0.01 0.01 0.01 0.03 0.02 0.00 0.00 0.00 0.00 0.00 0.00
0.00 0.00 0.00 0.00 0.01 0.01 0.01 0.00 0.00 0.00 0.01 0.01 0.02 0.03 0.04 0.03 0.03 0.02 0.02 0.02 0.01 0.01 0.01 0.01 0.01 0.00 0.00 0.00 0.01 0.02 0.03 0.01 0.01 0.00 0.00 0.01 0.02 0.03 0.03 0.01 0.00 0.00 0.00 0.00
0.00 0.00 0.00 0.00 0.01 0.01 0.01 0.00 0.00 0.01 0.01 0.01 0.02 0.03 0.03 0.02 0.02 0.01 0.01 0.01 0.00 0.00 0.00 0.00 0.00 0.00 0.00 0.00 0.00 0.01 0.01 0.01 0.01 0.01 0.00 0.01 0.01 0.01 0.02 0.03 0.03 0.02 0.00 0.00
0.00 0.00 0.01 0.01 0.01 0.01 0.01 0.01 0.01 0.01 0.02 0.02 0.02 0.02 0.01 0.01 0.01 0.01 0.00 0.00 0.00 0.00 0.00 0.00 0.00 0.00 0.00 0.00 0.00 0.00 0.00 0.01 0.01 0.01 0.01 0.00 0.00 0.01 0.02 0.02 0.02 0.03 0.02 0.01
0.00 0.00 0.00 0.00 0.01 0.01 0.01 0.01 0.01 0.01 0.01 0.01 0.01 0.01 0.01 0.01 0.00 0.00 0.00 0.00 0.00 0.00 0.00 0.00 0.00 0.00 0.00 0.00 0.00 0.00 0.00 0.00 0.00 0.00 0.00 0.00 0.00 0.01 0.01 0.02 0.03 0.03 0.03 0.02
0.00 0.00 0.00 0.01 0.01 0.01 0.01 0.00 0.00 0.00 0.00 0.01 0.01 0.01 0.00 0.00 0.00 0.00 0.00 0.00 0.00 0.00 0.00 0.00 0.00 0.00 0.00 0.00 0.00 0.00 0.00 0.00 0.00 0.00 0.00 0.00 0.00 0.00 0.01 0.02 0.02 0.03 0.01 0.00
0.00 0.00 0.00 0.00 0.00 0.00 0.00 0.00 0.00 0.00 0.00 0.00 0.00 0.00 0.00 0.00 0.00 0.00 0.00 0.00 0.00 0.00 0.00 0.00 0.00 0.00 0.00 0.00 0.00 0.00 0.00 0.00 0.00 0.00 0.00 0.00 0.00 0.00 0.01 0.01 0.02 0.01 0.01 0.00
0.00 0.00 0.00 0.00 0.00 0.00 0.00 0.00 0.00 0.00 0.00 0.00 0.00 0.00 0.00 0.00 0.00 0.00 0.00 0.00 0.00 0.00 0.00 0.00 0.00 0.00 0.00 0.00 0.00 0.00 0.00 0.00 0.00 0.00 0.00 0.00 0.00 0.00 0.01 0.01 0.02 0.01 0.01 0.01
0.00 0.00 0.00 0.00 0.00 0.00 0.00 0.00 0.00 0.00 0.00 0.00 0.00 0.00 0.00 0.00 0.00 0.00 0.00 0.00 0.00 0.00 0.00 0.00 0.00 0.00 0.00 0.00 0.00 0.00 0.00 0.00 0.00 0.00 0.00 0.00 0.00 0.00 0.00 0.00 0.01 0.02 0.02 0.02
0.00 0.00 0.00 0.00 0.00 0.00 0.00 0.00 0.00 0.00 0.00 0.00 0.00 0.00 0.00 0.00 0.00 0.00 0.00 0.01 0.01 0.00 0.00 0.00 0.00 0.00 0.00 0.00 0.00 0.00 0.00 0.00 0.00 0.00 0.00 0.00 0.00 0.00 0.00 0.00 0.00 0.01 0.01 0.01
0.00 0.00 0.00 0.00 0.00 0.00 0.00 0.00 0.00 0.00 0.00 0.00 0.00 0.00 0.00 0.00 0.00 0.00 0.00 0.00 0.00 0.00 0.00 0.00 0.00 0.00 0.00 0.00 0.00 0.00 0.00 0.00 0.00 0.00 0.00 0.00 0.00 0.00 0.00 0.00 0.00 0.00 0.01 0.00
0.00 0.00 0.00 0.00 0.00 0.00 0.00 0.00 0.00 0.00 0.00 0.00 0.00 0.00 0.00 0.00 0.00 0.00 0.00 0.00 0.00 0.00 0.00 0.00 0.00 0.00 0.00 0.00 0.00 0.00 0.00 0.00 0.00 0.00 0.00 0.00 0.00 0.00 0.00 0.00 0.00 0.00 0.00 0.00
0.00 0.00 0.00 0.00 0.00 0.00 0.00 0.00 0.00 0.00 0.00 0.00 0.00 0.00 0.00 0.00 0.00 0.00 0.00 0.00 0.00 0.00 0.00 0.00 0.00 0.00 0.00 0.00 0.00 0.00 0.00 0.00 0.00 0.00 0.00 0.00 0.00 0.00 0.00 0.00 0.00 0.00 0.00 0.00
0.00 0.00 0.00 0.00 0.00 0.00 0.00 0.00 0.00 0.00 0.00 0.00 0.00 0.00 0.00 0.00 0.00 0.00 0.00 0.00 0.00 0.00 0.00 0.00 0.00 0.00 0.00 0.00 0.00 0.00 0.00 0.00 0.00 0.00 0.00 0.00 0.00 0.00 0.00 0.00 0.00 0.00 0.00 0.00
0.00 0.00 0.00 0.00 0.00 0.00 0.00 0.00 0.00 0.00 0.00 0.00 0.00 0.00 0.00 0.00 0.00 0.00 0.00 0.00 0.00 0.00 0.00 0.00 0.00 0.00 0.00 0.00 0.00 0.00 0.00 0.00 0.00 0.00 0.00 0.00 0.00 0.00 0.00 0.00 0.00 0.00 0.00 0.00
0.00 0.00 0.00 0.00 0.00 0.00 0.00 0.00 0.00 0.00 0.00 0.00 0.00 0.00 0.00 0.00 0.00 0.00 0.00 0.00 0.00 0.00 0.00 0.00 0.00 0.00 0.00 0.00 0.00 0.00 0.00 0.00 0.00 0.00 0.00 0.00 0.00 0.00 0.00 0.00 0.00 0.00 0.00 0.00
MSLP
1010.48 1010.56 1010.56 1010.52 1010.51 1010.56 1010.72 1011.02 1011.47 1012.07 1012.82 1013.67 1014.61 1015.59 1016.58 1017.56 1018.48 1019.35 1020.12 1020.80 1021.36 1021.83 1022.19 1022.46 1022.65 1022.78 1022.86 1022.90 1022.92 1022.93 1022.94 1022.95 1022.97 1023.01 1023.07 1023.16 1023.29 1023.46 1023.66 1023.89 1024.14 1024.39 1024.61 1024.79
1010.89 1011.05 1011.13 1011.15 1011.15 1011.21 1011.36 1011.64 1012.08 1012.68 1013.42 1014.28 1015.23 1016.22 1017.20 1018.15 1019.04 1019.84 1020.53 1021.12 1021.61 1022.00 1022.30 1022.53 1022.71 1022.83 1022.93 1022.99 1023.04 1023.07 1023.10 1023.13 1023.17 1023.22 1023.30 1023.42 1023.57 1023.77 1024.01 1024.28 1024.56 1024.83 1025.08 1025.28
1011.33 1011.57 1011.71 1011.79 1011.83 1011.90 1012.06 1012.33 1012.76 1013.34 1014.08 1014.93 1015.87 1016.85 1017.81 1018.73 1019.56 1020.28 1020.90 1021.40 1021.80 1022.11 1022.36 1022.55 1022.71 1022.84 1022.96 1023.06 1023.15 1023.22 1023.29 1023.36 1023.42 1023.51 1023.61 1023.74 1023.91 1024.12 1024.37 1024.64 1024.93 1025.20 1025.45 1025.64
1011.76 1012.07 1012.28 1012.41 1012.50 1012.60 1012.77 1013.05 1013.47 1014.05 1014.77 1015.62 1016.55 1017.50 1018.43 1019.30 1020.08 1020.73 1021.27 1021.69 1022.01 1022.26 1022.45 1022.61 1022.76 1022.90 1023.04 1023.18 1023.32 1023.44 1023.56 1023.67 1023.77 1023.88 1023.99 1024.13 1024.30 1024.49 1024.72 1024.97 1025.22 1025.47 1025.68 1025.84
1012.15 1012.52 1012.79 1012.98 1013.13 1013.27 1013.47 1013.77 1014.20 1014.78 1015.51 1016.34 1017.26 1018.19 1019.09 1019.91 1020.63 1021.23 1021.69 1022.04 1022.30 1022.49 1022.64 1022.78 1022.92 1023.07 1023.23 1023.41 1023.59 1023.76 1023.92 1024.07 1024.20 1024.32 1024.43 1024.56 1024.70 1024.86 1025.04 1025.24 1025.44 1025.64 1025.81 1025.93
1012.46 1012.88 1013.22 1013.48 1013.68 1013.89 1014.13 1014.47 1014.93 1015.53 1016.26 1017.09 1017.99 1018.90 1019.78 1020.57 1021.24 1021.78 1022.19 1022.49 1022.69 1022.83 1022.94 1023.05 1023.18 1023.34 1023.52 1023.73 1023.94 1024.15 1024.34 1024.51 1024.65 1024.77 1024.88 1024.98 1025.08 1025.19 1025.32 1025.46 1025.61 1025.75 1025.87 1025.96
1012.69 1013.17 1013.56 1013.89 1014.17 1014.43 1014.74 1015.13 1015.63 1016.25 1017.00 1017.84 1018.74 1019.64 1020.49 1021.24 1021.88 1022.38 1022.75 1022.99 1023.15 1023.25 1023.33 1023.42 1023.53 1023.68 1023.87 1024.09 1024.32 1024.54 1024.75 1024.93 1025.07 1025.19 1025.28 1025.35 1025.42 1025.49 1025.57 1025.67 1025.76 1025.86 1025.95 1026.01
1012.85 1013.38 1013.84 1014.24 1014.59 1014.93 1015.30 1015.75 1016.29 1016.95 1017.72 1018.57 1019.46 1020.34 1021.17 1021.90 1022.50 1022.97 1023.29 1023.50 1023.62 1023.69 1023.74 1023.80 1023.90 1024.03 1024.21 1024.42 1024.65 1024.87 1025.08 1025.26 1025.40 1025.51 1025.59 1025.65 1025.70 1025.75 1025.80 1025.87 1025.94 1026.01 1026.08 1026.13
1012.98 1013.56 1014.08 1014.54 1014.96 1015.38 1015.82 1016.32 1016.91 1017.60 1018.39 1019.24 1020.11 1020.98 1021.78 1022.47 1023.04 1023.47 1023.77 1023.94 1024.03 1024.07 1024.09 1024.13 1024.20 1024.32 1024.48 1024.67 1024.89 1025.10 1025.30 1025.47 1025.61 1025.72 1025.80 1025.86 1025.91 1025.96 1026.01 1026.08 1026.16 1026.23 1026.30 1026.35
1013.12 1013.75 1014.32 1014.84 1015.33 1015.80 1016.31 1016.86 1017.49 1018.19 1018.98 1019.81 1020.66 1021.49 1022.25 1022.91 1023.44 1023.83 1024.10 1024.24 1024.31 1024.33 1024.33 1024.35 1024.40 1024.50 1024.64 1024.81 1025.00 1025.20 1025.39 1025.56 1025.70 1025.81 1025.90 1025.98 1026.05 1026.13 1026.22 1026.31 1026.41 1026.50 1026.58 1026.63
1013.30 1013.97 1014.59 1015.16 1015.70 1016.23 1016.77 1017.36 1018.00 1018.71 1019.47 1020.28 1021.08 1021.86 1022.56 1023.17 1023.65 1024.01 1024.25 1024.37 1024.43 1024.44 1024.43 1024.44 1024.48 1024.56 1024.68 1024.84 1025.01 1025.19 1025.37 1025.53 1025.68 1025.81 1025.92 1026.03 1026.15 1026.27 1026.39 1026.53 1026.66 1026.78 1026.88 1026.93
1013.54 1014.23 1014.89 1015.50 1016.09 1016.65 1017.22 1017.82 1018.46 1019.15 1019.87 1020.62 1021.36 1022.07 1022.70 1023.25 1023.68 1024.00 1024.21 1024.33 1024.38 1024.40 1024.40 1024.41 1024.46 1024.53 1024.65 1024.79 1024.95 1025.12 1025.29 1025.45 1025.60 1025.75 1025.89 1026.04 1026.19 1026.36 1026.53 1026.71 1026.87 1027.01 1027.12 1027.16
1013.81 1014.53 1015.22 1015.86 1016.47 1017.06 1017.65 1018.24 1018.86 1019.50 1020.17 1020.85 1021.51 1022.14 1022.70 1023.18 1023.57 1023.85 1024.05 1024.17 1024.23 1024.26 1024.29 1024.32 1024.38 1024.46 1024.58 1024.72 1024.87 1025.03 1025.19 1025.35 1025.51 1025.67 1025.83 1026.01 1026.20 1026.40 1026.61 1026.81 1027.00 1027.15 1027.24 1027.26
1014.09 1014.83 1015.53 1016.20 1016.84 1017.44 1018.02 1018.60 1019.19 1019.78 1020.38 1020.98 1021.56 1022.11 1022.60 1023.02 1023.36 1023.63 1023.82 1023.95 1024.04 1024.10 1024.16 1024.22 1024.30 1024.41 1024.53 1024.66 1024.81 1024.96 1025.11 1025.26 1025.41 1025.58 1025.75 1025.95 1026.16 1026.38 1026.61 1026.82 1027.01 1027.15 1027.22 1027.22
1014.32 1015.07 1015.80 1016.49 1017.14 1017.75 1018.33 1018.89 1019.44 1019.99 1020.52 1021.05 1021.56 1022.03 1022.45 1022.83 1023.14 1023.39 1023.59 1023.74 1023.86 1023.96 1024.06 1024.16 1024.27 1024.38 1024.51 1024.64 1024.77 1024.90 1025.04 1025.17 1025.31 1025.47 1025.64 1025.84 1026.05 1026.28 1026.51 1026.72 1026.90 1027.02 1027.06 1027.02
1014.46 1015.24 1016.00 1016.71 1017.37 1017.99 1018.57 1019.11 1019.63 1020.13 1020.61 1021.07 1021.52 1021.93 1022.31 1022.65 1022.95 1023.20 1023.42 1023.60 1023.75 1023.89 1024.02 1024.15 1024.28 1024.40 1024.52 1024.64 1024.75 1024.85 1024.95 1025.06 1025.18 1025.32 1025.48 1025.66 1025.87 1026.09 1026.31 1026.51 1026.67 1026.77 1026.79 1026.72
1014.51 1015.32 1016.10 1016.84 1017.52 1018.15 1018.72 1019.25 1019.75 1020.21 1020.65 1021.07 1021.48 1021.86 1022.21 1022.53 1022.83 1023.10 1023.33 1023.54 1023.73 1023.90 1024.06 1024.20 1024.33 1024.44 1024.54 1024.63 1024.70 1024.77 1024.83 1024.90 1024.99 1025.10 1025.24 1025.41 1025.60 1025.81 1026.02 1026.21 1026.35 1026.44 1026.45 1026.38
1014.49 1015.33 1016.14 1016.90 1017.60 1018.23 1018.81 1019.33 1019.81 1020.25 1020.67 1021.07 1021.45 1021.81 1022.16 1022.49 1022.79 1023.08 1023.34 1023.57 1023.78 1023.97 1024.13 1024.27 1024.39 1024.47 1024.54 1024.58 1024.60 1024.61 1024.63 1024.66 1024.71 1024.80 1024.91 1025.07 1025.26 1025.46 1025.66 1025.85 1025.99 1026.08 1026.10 1026.04
1014.43 1015.30 1016.14 1016.92 1017.63 1018.27 1018.85 1019.36 1019.83 1020.26 1020.67 1021.05 1021.43 1021.79 1022.15 1022.49 1022.82 1023.12 1023.40 1023.66 1023.88 1024.07 1024.22 1024.34 1024.42 1024.46 1024.47 1024.46 1024.42 1024.38 1024.35 1024.34 1024.36 1024.42 1024.53 1024.67 1024.86 1025.06 1025.27 1025.46 1025.62 1025.73 1025.76 1025.73
1014.39 1015.30 1016.15 1016.94 1017.66 1018.29 1018.86 1019.36 1019.82 1020.24 1020.64 1021.03 1021.41 1021.78 1022.15 1022.52 1022.86 1023.19 1023.48 1023.75 1023.97 1024.15 1024.28 1024.36 1024.39 1024.39 1024.34 1024.27 1024.18 1024.09 1024.02 1023.97 1023.97 1024.01 1024.11 1024.26 1024.45 1024.66 1024.88 1025.10 1025.27 1025.40 1025.47 1025.48
1014.43 1015.34 1016.20 1016.99 1017.69 1018.30 1018.85 1019.33 1019.78 1020.19 1020.58 1020.97 1021.36 1021.75 1022.14 1022.52 1022.88 1023.22 1023.53 1023.79 1024.01 1024.17 1024.27 1024.31 1024.31 1024.25 1024.15 1024.03 1023.90 1023.77 1023.67 1023.60 1023.58 1023.62 1023.72 1023.87 1024.07 1024.30 1024.54 1024.77 1024.97 1025.13 1025.23 1025.28
1014.54 1015.46 1016.30 1017.06 1017.73 1018.31 1018.83 1019.28 1019.70 1020.09 1020.47 1020.86 1021.25 1021.66 1022.06 1022.45 1022.83 1023.18 1023.49 1023.75 1023.96 1024.10 1024.17 1024.19 1024.14 1024.05 1023.92 1023.77 1023.61 1023.46 1023.35 1023.27 1023.25 1023.29 1023.40 1023.56 1023.77 1024.01 1024.25 1024.50 1024.71 1024.89 1025.02 1025.10
1014.72 1015.62 1016.43 1017.14 1017.76 1018.30 1018.77 1019.18 1019.57 1019.94 1020.30 1020.68 1021.08 1021.48 1021.89 1022.29 1022.68 1023.03 1023.34 1023.59 1023.79 1023.91 1023.97 1023.96 1023.90 1023.79 1023.65 1023.50 1023.34 1023.20 1023.09 1023.02 1023.01 1023.07 1023.18 1023.35 1023.56 1023.80 1024.04 1024.29 1024.50 1024.69 1024.83 1024.93
1014.92 1015.77 1016.53 1017.19 1017.75 1018.23 1018.65 1019.02 1019.37 1019.71 1020.06 1020.43 1020.81 1021.22 1021.62 1022.02 1022.40 1022.75 1023.05 1023.30 1023.48 1023.60 1023.65 1023.64 1023.59 1023.49 1023.36 1023.22 1023.09 1022.98 1022.89 1022.86 1022.87 1022.94 1023.06 1023.23 1023.43 1023.66 1023.90 1024.12 1024.33 1024.51 1024.65 1024.76
1015.08 1015.87 1016.56 1017.15 1017.65 1018.07 1018.44 1018.77 1019.09 1019.40 1019.74 1020.09 1020.47 1020.86 1021.26 1021.65 1022.02 1022.35 1022.64 1022.87 1023.05 1023.17 1023.22 1023.23 1023.19 1023.12 1023.03 1022.94 1022.85 1022.78 1022.74 1022.74 1022.78 1022.87 1023.00 1023.17 1023.36 1023.57 1023.78 1023.99 1024.18 1024.34 1024.48 1024.59
1015.11 1015.84 1016.46 1016.99 1017.43 1017.80 1018.13 1018.43 1018.73 1019.03 1019.35 1019.70 1020.06 1020.44 1020.82 1021.19 1021.54 1021.85 1022.12 1022.34 1022.51 1022.62 1022.69 1022.72 1022.71 1022.69 1022.65 1022.61 1022.58 1022.57 1022.59 1022.63 1022.71 1022.82 1022.96 1023.12 1023.30 1023.49 1023.68 1023.86 1024.03 1024.18 1024.32 1024.43
1014.97 1015.63 1016.19 1016.66 1017.06 1017.41 1017.71 1018.01 1018.30 1018.60 1018.92 1019.26 1019.62 1019.98 1020.34 1020.69 1021.01 1021.29 1021.54 1021.73 1021.89 1022.00 1022.08 1022.13 1022.16 1022.18 1022.20 1022.22 1022.26 1022.31 1022.38 1022.48 1022.59 1022.72 1022.87 1023.03 1023.21 1023.38 1023.55 1023.72 1023.88 1024.02 1024.16 1024.29
Thickness
5672 5679 5681 5678 5678 5681 5679 5674 5661 5650 5642 5632 5630 5624 5619 5614 5608 5602 5597 5592 5587 5583 5580 5577 5575 5573 5571 5570 5568 5567 5565 5562 5559 5557 5556 5554 5553 5551 5549 5548 5546 5543 5540 5537
5673 5681 5679 5673 5674 5673 5669 5665 5658 5646 5631 5630 5622 5615 5608 5603 5598 5592 5587 5581 5577 5572 5568 5566 5563 5562 5560 5558 5556 5555 5552 5550 5548 5546 5544 5542 5541 5539 5537 5536 5533 5531 5528 5525
5667 5678 5672 5656 5663 5662 5656 5652 5648 5633 5623 5619 5610 5604 5598 5593 5588 5582 5577 5572 5567 5562 5557 5554 5553 5551 5549 5547 5546 5543 5541 5539 5537 5535 5533 5532 5531 5528 5526 5524 5522 5519 5517 5512
5670 5667 5643 5650 5665 5661 5649 5641 5637 5628 5620 5610 5601 5594 5589 5584 5578 5571 5566 5560 5555 5550 5546 5544 5542 5540 5539 5537 5535 5533 5530 5529 5527 5525 5523 5521 5519 5517 5516 5514 5511 5509 5506 5502
5666 5656 5646 5648 5656 5653 5640 5627 5627 5619 5611 5602 5595 5585 5574 5570 5566 5560 5554 5548 5544 5540 5536 5534 5532 5531 5529 5527 5526 5524 5522 5520 5518 5516 5514 5512 5510 5508 5506 5504 5502 5500 5496 5493
5664 5648 5635 5637 5652 5655 5640 5613 5618 5613 5604 5597 5591 5579 5564 5559 5555 5549 5543 5538 5534 5531 5528 5525 5524 5523 5521 5518 5517 5515 5513 5511 5509 5507 5506 5504 5501 5500 5498 5496 5494 5492 5488 5485
5660 5648 5638 5645 5652 5649 5618 5604 5611 5607 5599 5590 5581 5572 5559 5551 5545 5539 5534 5530 5527 5524 5521 5518 5517 5515 5513 5510 5508 5507 5505 5503 5502 5500 5498 5496 5494 5492 5490 5489 5486 5484 5482 5478
5659 5643 5626 5643 5643 5625 5612 5612 5607 5599 5591 5580 5570 5560 5551 5543 5536 5531 5526 5523 5520 5517 5514 5512 5510 5508 5506 5503 5501 5500 5498 5496 5495 5493 5493 5490 5487 5485 5484 5482 5480 5478 5475 5473
5649 5635 5635 5636 5629 5623 5618 5608 5600 5591 5582 5573 5562 5552 5544 5536 5530 5525 5521 5517 5514 5512 5509 5506 5504 5502 5499 5497 5496 5494 5492 5490 5489 5488 5485 5484 5482 5480 5478 5477 5475 5473 5470 5467
5648 5639 5636 5631 5625 5619 5613 5604 5596 5587 5577 5567 5557 5548 5539 5532 5526 5521 5517 5513 5510 5507 5504 5501 5499 5497 5494 5492 5490 5488 5486 5485 5484 5482 5480 5477 5475 5473 5472 5469 5467 5466 5463 5460
5645 5639 5633 5626 5620 5613 5606 5598 5590 5581 5572 5563 5553 5544 5537 5529 5523 5519 5515 5510 5507 5504 5501 5498 5495 5492 5490 5488 5486 5483 5482 5480 5479 5478 5476 5472 5468 5463 5462 5457 5455 5454 5454 5454
5647 5643 5635 5622 5617 5610 5600 5591 5584 5575 5566 5558 5550 5541 5535 5528 5522 5517 5513 5508 5505 5502 5498 5495 5492 5489 5487 5485 5483 5480 5479 5478 5477 5476 5473 5470 5465 5460 5454 5452 5449 5448 5446 5444
5655 5649 5637 5625 5616 5607 5598 5589 5580 5572 5563 5553 5546 5539 5533 5526 5520 5516 5511 5507 5503 5499 5496 5493 5490 5487 5485 5483 5481 5478 5477 5476 5475 5474 5471 5469 5465 5462 5456 5450 5447 5446 5444 5443
5653 5642 5628 5620 5611 5604 5595 5586 5577 5568 5559 5551 5544 5537 5531 5524 5519 5514 5510 5505 5501 5497 5493 5490 5487 5485 5482 5480 5478 5477 5475 5473 5472 5471 5469 5467 5465 5463 5460 5457 5453 5450 5446 5444
5648 5640 5628 5619 5609 5600 5591 5582 5573 5564 5556 5548 5542 5535 5529 5523 5517 5512 5508 5504 5499 5495 5492 5489 5486 5483 5481 5479 5477 5476 5475 5474 5472 5470 5469 5467 5464 5462 5460 5458 5455 5454 5451 5447
5645 5636 5626 5615 5606 5597 5589 5580 5571 5563 5555 5547 5540 5534 5528 5522 5516 5511 5507 5502 5497 5493 5490 5487 5484 5482 5480 5479 5477 5476 5474 5470 5470 5470 5469 5467 5464 5462 5459 5457 5455 5453 5452 5450
5640 5630 5622 5612 5604 5596 5588 5581 5572 5564 5556 5547 5540 5534 5528 5521 5516 5510 5506 5502 5497 5493 5489 5486 5483 5482 5481 5480 5478 5478 5478 5473 5468 5470 5469 5467 5464 5462 5459 5457 5455 5454 5452 5449
5644 5635 5626 5616 5606 5597 5589 5581 5573 5565 5556 5549 5541 5534 5527 5521 5515 5510 5506 5502 5498 5493 5490 5487 5484 5482 5482 5481 5479 5479 5480 5478 5475 5474 5471 5468 5465 5462 5460 5458 5456 5455 5453 5451
5644 5634 5626 5617 5609 5600 5591 5582 5574 5566 5558 5551 5542 5535 5528 5523 5517 5512 5508 5504 5500 5496 5492 5488 5483 5482 5483 5481 5478 5480 5481 5481 5479 5475 5472 5465 5465 5464 5461 5459 5457 5456 5455 5453
5642 5634 5625 5617 5609 5600 5591 5583 5575 5566 5559 5552 5544 5536 5530 5525 5520 5516 5511 5508 5503 5500 5495 5491 5487 5487 5486 5484 5480 5483 5485 5484 5481 5478 5474 5471 5468 5465 5463 5461 5459 5457 5455 5454
5640 5632 5624 5616 5607 5599 5591 5583 5575 5566 5560 5553 5545 5539 5533 5528 5524 5520 5515 5511 5505 5502 5497 5492 5491 5491 5489 5486 5483 5487 5487 5486 5484 5481 5477 5474 5470 5468 5465 5463 5461 5459 5458 5456
5638 5630 5622 5614 5606 5597 5590 5583 5575 5568 5560 5554 5548 5543 5537 5531 5528 5524 5520 5516 5509 5503 5501 5501 5497 5492 5490 5487 5490 5492 5491 5489 5487 5484 5480 5476 5473 5470 5468 5465 5464 5462 5460 5458
5635 5628 5620 5612 5604 5596 5589 5582 5576 5569 5562 5557 5552 5546 5541 5537 5535 5530 5523 5519 5515 5507 5505 5504 5498 5494 5491 5491 5495 5497 5494 5492 5490 5488 5484 5480 5477 5474 5471 5469 5467 5465 5463 5461
5632 5625 5618 5611 5603 5595 5587 5581 5576 5570 5565 5561 5556 5550 5546 5541 5538 5536 5529 5520 5516 5510 5510 5503 5500 5497 5494 5496 5499 5502 5499 5496 5493 5491 5488 5484 5481 5478 5475 5472 5470 5468 5466 5463
5629 5622 5615 5608 5600 5594 5588 5583 5577 5571 5567 5563 5559 5554 5551 5548 5544 5539 5533 5526 5518 5514 5513 5507 5504 5501 5500 5503 5506 5506 5503 5498 5495 5492 5490 5487 5485 5482 5479 5476 5473 5471 5468 5466
5625 5619 5613 5608 5602 5597 5591 5585 5579 5574 5571 5567 5563 5559 5555 5552 5547 5542 5536 5530 5525 5519 5519 5516 5511 5507 5508 5511 5512 5508 5504 5499 5497 5494 5493 5490 5488 5485 5482 5479 5475 5474 5471 5468
5622 5617 5611 5607 5603 5599 5595 5589 5584 5579 5576 5571 5568 5564 5560 5555 5551 5546 5541 5537 5533 5527 5527 5526 5523 5521 5519 5519 5517 5512 5509 5505 5502 5499 5496 5493 5490 5488 5485 5481 5479 5477 5474 5471